WXM80 ListenWXM80 Stop

You find our weather info also at:

UK Metoffice

WeatherCloud

Weather Underground

Northeastern Weather Network

AWEKAS

Citizen Weather Observer Program (CWOP)

HAMweather, WeatherForYou, PWS Weather


Weather Underground History page Text

Daily Summary for January 2, 2017 Units:  English    Metric   Both
« Previous Day
Next Day »
Daily Weekly Monthly Yearly Custom
  High: Low: Average:
Temperature: 40.2 °F 31.6 °F 37.3 °F
Dew Point: 38.9 °F 26.9 °F 34.1 °F
Humidity: 97 % 76 % 88 %
Wind Speed: 13.4 mph 0.0 mph 5.2 mph
Wind Gust: 29.0 mph - -
Wind:- - East
Pressure: 30.50 in 30.24 in -
Precipitation: 0.12 in    
Historical Graphs
 
 
Tabular Data for January 2, 2017
Time Temperature Dew Point Pressure Wind Wind Speed Wind Gust Humidity Rainfall Rate (Hourly)
00:00 31.6 °F 27.3 °F 30.42 in West 0.2 mph 29.0 mph 84 % 0.00 in
00:05 31.7 °F 27.4 °F 30.42 in Calm   29.0 mph 84 % 0.00 in
00:10 31.8 °F 27.5 °F 30.42 in West 0.3 mph 29.0 mph 84 % 0.00 in
00:15 32.0 °F 27.4 °F 30.42 in West 0.7 mph 29.0 mph 83 % 0.00 in
00:20 32.1 °F 27.5 °F 30.42 in Calm   29.0 mph 83 % 0.00 in
00:25 32.2 °F 27.6 °F 30.42 in NE 2.1 mph 29.0 mph 83 % 0.00 in
00:30 32.3 °F 27.4 °F 30.42 in NE 1.4 mph 29.0 mph 82 % 0.00 in
00:35 32.3 °F 27.1 °F 30.42 in Calm   29.0 mph 81 % 0.00 in
00:40 32.3 °F 27.1 °F 30.42 in NE 0.3 mph 29.0 mph 81 % 0.00 in
00:45 32.3 °F 27.1 °F 30.41 in Calm   29.0 mph 81 % 0.00 in
00:50 32.3 °F 27.1 °F 30.41 in NE 0.2 mph 29.0 mph 81 % 0.00 in
00:55 32.3 °F 27.1 °F 30.41 in Calm   29.0 mph 81 % 0.00 in
01:01 32.3 °F 27.1 °F 30.41 in Calm   29.0 mph 81 % 0.00 in
01:06 32.2 °F 27.0 °F 30.41 in Calm   29.0 mph 81 % 0.00 in
01:08 32.2 °F 27.0 °F 30.41 in Calm   29.0 mph 81 % 0.00 in
01:13 32.1 °F 26.9 °F 30.42 in NE 0.9 mph 29.0 mph 81 % 0.00 in
01:18 32.0 °F 27.1 °F 30.41 in NE 0.8 mph 29.0 mph 82 % 0.00 in
01:23 31.9 °F 27.0 °F 30.41 in Calm   29.0 mph 82 % 0.00 in
01:28 31.9 °F 27.3 °F 30.41 in NE 0.2 mph 29.0 mph 83 % 0.00 in
01:33 31.9 °F 27.3 °F 30.41 in NE 0.4 mph 29.0 mph 83 % 0.00 in
01:38 32.0 °F 27.7 °F 30.42 in NE 1.4 mph 29.0 mph 84 % 0.00 in
01:43 32.0 °F 28.0 °F 30.43 in Calm   29.0 mph 85 % 0.00 in
01:48 32.1 °F 28.1 °F 30.43 in ENE 1.7 mph 29.0 mph 85 % 0.00 in
01:53 32.2 °F 28.5 °F 30.42 in ENE 1.3 mph 29.0 mph 86 % 0.00 in
01:58 32.5 °F 29.1 °F 30.42 in ENE 1.9 mph 29.0 mph 87 % 0.00 in
02:03 32.9 °F 29.7 °F 30.42 in East 1.2 mph 29.0 mph 88 % 0.00 in
02:08 33.2 °F 30.0 °F 30.43 in SE 1.4 mph 29.0 mph 88 % 0.00 in
02:13 33.4 °F 30.2 °F 30.43 in Calm   29.0 mph 88 % 0.00 in
02:18 33.5 °F 30.3 °F 30.43 in SE 0.2 mph 29.0 mph 88 % 0.00 in
02:23 33.7 °F 30.5 °F 30.44 in SE 1.0 mph 29.0 mph 88 % 0.00 in
02:24 33.7 °F 30.5 °F 30.44 in SE 1.0 mph 29.0 mph 88 % 0.00 in
02:29 33.8 °F 30.6 °F 30.45 in SE 1.4 mph 29.0 mph 88 % 0.00 in
02:34 34.0 °F 30.5 °F 30.45 in SSE 1.1 mph 29.0 mph 87 % 0.00 in
02:39 34.2 °F 30.4 °F 30.45 in SSE 1.0 mph 29.0 mph 86 % 0.00 in
02:44 34.3 °F 30.3 °F 30.44 in SSE 0.2 mph 29.0 mph 85 % 0.00 in
02:49 34.4 °F 30.1 °F 30.44 in SSE 1.3 mph 29.0 mph 84 % 0.00 in
02:54 34.5 °F 29.9 °F 30.44 in SE 1.4 mph 29.0 mph 83 % 0.00 in
02:59 34.7 °F 29.8 °F 30.44 in SSE 1.0 mph 29.0 mph 82 % 0.00 in
03:04 34.8 °F 29.8 °F 30.44 in SSE 1.0 mph 2.0 mph 82 % 0.00 in
03:09 34.8 °F 29.6 °F 30.43 in Calm   2.0 mph 81 % 0.00 in
03:14 34.8 °F 29.6 °F 30.43 in Calm   2.0 mph 81 % 0.00 in
03:19 34.8 °F 29.6 °F 30.43 in Calm   1.0 mph 81 % 0.00 in
03:24 34.8 °F 29.6 °F 30.43 in Calm   2.0 mph 81 % 0.00 in
03:29 34.7 °F 29.2 °F 30.43 in Calm   3.0 mph 80 % 0.00 in
03:34 34.6 °F 29.1 °F 30.43 in Calm   29.0 mph 80 % 0.00 in
03:39 34.5 °F 28.9 °F 30.43 in Calm   1.0 mph 80 % 0.00 in
03:44 34.4 °F 28.9 °F 30.43 in Calm     80 % 0.00 in
03:49 34.2 °F 28.7 °F 30.43 in Calm   2.0 mph 80 % 0.00 in
03:54 34.1 °F 28.3 °F 30.44 in Calm   2.0 mph 79 % 0.00 in
03:59 34.1 °F 28.3 °F 30.44 in SSE 0.1 mph 29.0 mph 79 % 0.00 in
04:04 34.1 °F 28.3 °F 30.44 in Calm   2.0 mph 79 % 0.00 in
04:09 34.1 °F 28.3 °F 30.44 in Calm   3.0 mph 79 % 0.00 in
04:14 34.0 °F 28.2 °F 30.44 in SSE 1.0 mph 2.0 mph 79 % 0.00 in
04:19 34.0 °F 28.2 °F 30.44 in SE 1.4 mph 29.0 mph 79 % 0.00 in
04:24 34.0 °F 28.2 °F 30.44 in SE 0.8 mph 29.0 mph 79 % 0.00 in
04:29 34.1 °F 28.0 °F 30.44 in SE 0.9 mph 29.0 mph 78 % 0.00 in
04:34 34.2 °F 28.1 °F 30.45 in SSE 1.3 mph 29.0 mph 78 % 0.00 in
04:39 34.2 °F 28.1 °F 30.45 in Calm   29.0 mph 78 % 0.00 in
04:45 34.3 °F 27.8 °F 30.46 in SE 2.0 mph 29.0 mph 77 % 0.00 in
04:50 34.3 °F 27.8 °F 30.46 in SE 0.4 mph 29.0 mph 77 % 0.00 in
04:55 34.4 °F 27.9 °F 30.46 in SE 0.8 mph 29.0 mph 77 % 0.00 in
05:00 34.3 °F 27.8 °F 30.46 in Calm   29.0 mph 77 % 0.00 in
05:05 34.4 °F 27.6 °F 30.45 in ESE 1.6 mph 29.0 mph 76 % 0.00 in
05:10 34.3 °F 27.5 °F 30.45 in ESE 1.7 mph 29.0 mph 76 % 0.00 in
05:15 34.2 °F 27.4 °F 30.45 in ESE 0.1 mph 29.0 mph 76 % 0.00 in
05:20 34.2 °F 27.4 °F 30.45 in ESE 0.1 mph 29.0 mph 76 % 0.00 in
05:25 34.1 °F 27.6 °F 30.45 in Calm   29.0 mph 77 % 0.00 in
05:30 34.1 °F 27.6 °F 30.45 in Calm   29.0 mph 77 % 0.00 in
05:35 34.1 °F 27.6 °F 30.45 in Calm   29.0 mph 77 % 0.00 in
05:40 34.1 °F 27.6 °F 30.46 in ESE 0.4 mph 29.0 mph 77 % 0.00 in
05:45 34.1 °F 27.6 °F 30.46 in Calm   29.0 mph 77 % 0.00 in
05:50 34.1 °F 28.0 °F 30.46 in Calm   29.0 mph 78 % 0.00 in
05:55 34.1 °F 28.0 °F 30.45 in Calm   29.0 mph 78 % 0.00 in
06:00 34.1 °F 28.0 °F 30.45 in Calm   29.0 mph 78 % 0.00 in
06:06 34.1 °F 28.0 °F 30.46 in ESE 1.0 mph 29.0 mph 78 % 0.00 in
06:11 34.1 °F 28.0 °F 30.46 in Calm   29.0 mph 78 % 0.00 in
06:16 34.2 °F 28.1 °F 30.46 in Calm   29.0 mph 78 % 0.00 in
06:21 34.3 °F 28.2 °F 30.47 in Calm   29.0 mph 78 % 0.00 in
06:26 34.3 °F 28.2 °F 30.47 in Calm   29.0 mph 78 % 0.00 in
06:31 34.3 °F 28.2 °F 30.48 in Calm   29.0 mph 78 % 0.00 in
06:36 34.4 °F 28.6 °F 30.48 in Calm   29.0 mph 79 % 0.00 in
06:41 34.4 °F 28.6 °F 30.47 in Calm   29.0 mph 79 % 0.00 in
06:46 34.4 °F 28.6 °F 30.48 in Calm   29.0 mph 79 % 0.00 in
06:51 34.4 °F 28.6 °F 30.48 in ESE 0.5 mph 29.0 mph 79 % 0.00 in
06:56 34.4 °F 28.6 °F 30.47 in ESE 0.5 mph 29.0 mph 79 % 0.00 in
07:01 34.4 °F 28.9 °F 30.47 in ESE 0.2 mph 29.0 mph 80 % 0.00 in
07:06 34.3 °F 28.8 °F 30.47 in ESE 2.0 mph 29.0 mph 80 % 0.00 in
07:11 34.3 °F 28.8 °F 30.47 in ESE 0.3 mph 29.0 mph 80 % 0.00 in
07:16 34.2 °F 29.0 °F 30.47 in East 1.3 mph 29.0 mph 81 % 0.00 in
07:22 34.3 °F 29.4 °F 30.47 in East 1.1 mph 29.0 mph 82 % 0.00 in
07:27 34.4 °F 29.8 °F 30.47 in East 2.6 mph 29.0 mph 83 % 0.00 in
07:32 34.7 °F 30.4 °F 30.46 in ENE 4.1 mph 29.0 mph 84 % 0.00 in
07:37 35.2 °F 30.9 °F 30.46 in ENE 6.3 mph 29.0 mph 84 % 0.00 in
07:42 36.0 °F 31.3 °F 30.46 in NE 6.3 mph 29.0 mph 83 % 0.00 in
07:47 36.5 °F 31.5 °F 30.46 in East 6.4 mph 29.0 mph 82 % 0.00 in
07:52 37.0 °F 31.7 °F 30.46 in East 6.2 mph 29.0 mph 81 % 0.00 in
07:57 37.3 °F 32.0 °F 30.46 in East 5.3 mph 29.0 mph 81 % 0.00 in
08:02 37.6 °F 32.3 °F 30.46 in East 3.8 mph 29.0 mph 81 % 0.00 in
08:07 37.7 °F 32.1 °F 30.47 in ESE 2.5 mph 29.0 mph 80 % 0.00 in
08:12 37.8 °F 32.2 °F 30.47 in SE 1.5 mph 29.0 mph 80 % 0.00 in
08:17 37.9 °F 32.0 °F 30.47 in East 1.0 mph 29.0 mph 79 % 0.00 in
08:22 38.0 °F 32.4 °F 30.48 in East 1.4 mph 29.0 mph 80 % 0.00 in
08:27 38.0 °F 32.4 °F 30.48 in East 0.7 mph 29.0 mph 80 % 0.00 in
08:32 38.1 °F 32.8 °F 30.48 in East 2.2 mph 29.0 mph 81 % 0.00 in
08:38 38.1 °F 32.5 °F 30.48 in East 0.3 mph 29.0 mph 80 % 0.00 in
08:43 38.1 °F 32.8 °F 30.47 in East 2.8 mph 29.0 mph 81 % 0.00 in
08:48 38.1 °F 32.8 °F 30.47 in East 2.6 mph 29.0 mph 81 % 0.00 in
08:53 38.1 °F 33.1 °F 30.47 in East 1.6 mph 29.0 mph 82 % 0.00 in
08:58 38.1 °F 33.1 °F 30.48 in East 1.3 mph 29.0 mph 82 % 0.00 in
09:03 38.1 °F 33.4 °F 30.47 in East 2.4 mph 29.0 mph 83 % 0.00 in
09:08 38.1 °F 33.4 °F 30.47 in East 1.8 mph 29.0 mph 83 % 0.00 in
09:13 38.1 °F 33.4 °F 30.48 in East 0.4 mph 29.0 mph 83 % 0.00 in
09:18 38.2 °F 33.8 °F 30.48 in ENE 2.3 mph 29.0 mph 84 % 0.00 in
09:23 38.4 °F 34.3 °F 30.48 in ENE 2.9 mph 29.0 mph 85 % 0.00 in
09:28 38.6 °F 34.8 °F 30.49 in ENE 5.3 mph 29.0 mph 86 % 0.00 in
09:33 39.0 °F 35.2 °F 30.49 in NNE 4.8 mph 29.0 mph 86 % 0.00 in
09:38 39.3 °F 36.0 °F 30.50 in ENE 3.5 mph 29.0 mph 88 % 0.00 in
09:43 39.5 °F 36.2 °F 30.50 in ENE 3.7 mph 29.0 mph 88 % 0.00 in
09:48 39.6 °F 36.3 °F 30.50 in NE 1.8 mph 29.0 mph 88 % 0.00 in
09:53 39.6 °F 36.3 °F 30.50 in ENE 5.4 mph 29.0 mph 88 % 0.00 in
09:58 39.5 °F 36.2 °F 30.50 in NE 5.2 mph 29.0 mph 88 % 0.00 in
10:03 39.4 °F 35.9 °F 30.50 in ENE 4.4 mph 29.0 mph 87 % 0.00 in
10:08 39.4 °F 35.9 °F 30.50 in ENE 3.5 mph 29.0 mph 87 % 0.00 in
10:14 39.4 °F 35.9 °F 30.50 in ENE 5.6 mph 29.0 mph 87 % 0.00 in
10:19 39.4 °F 35.9 °F 30.50 in ENE 5.6 mph 29.0 mph 87 % 0.00 in
10:24 39.5 °F 36.0 °F 30.50 in NE 3.7 mph 29.0 mph 87 % 0.00 in
10:29 39.5 °F 36.0 °F 30.49 in ENE 3.9 mph 29.0 mph 87 % 0.00 in
10:34 39.5 °F 36.0 °F 30.50 in ENE 4.6 mph 29.0 mph 87 % 0.00 in
10:39 39.5 °F 36.0 °F 30.50 in NE 4.2 mph 29.0 mph 87 % 0.00 in
10:44 39.5 °F 36.0 °F 30.50 in ENE 3.1 mph 29.0 mph 87 % 0.00 in
10:49 39.5 °F 36.0 °F 30.49 in ENE 3.7 mph 29.0 mph 87 % 0.00 in
10:54 39.6 °F 36.0 °F 30.49 in ENE 3.7 mph 29.0 mph 87 % 0.00 in
10:59 39.7 °F 36.4 °F 30.49 in NE 5.1 mph 29.0 mph 88 % 0.00 in
11:04 39.7 °F 36.4 °F 30.49 in ENE 5.0 mph 9.0 mph 88 % 0.00 in
11:09 39.6 °F 36.3 °F 30.48 in ENE 5.0 mph 8.0 mph 88 % 0.00 in
11:14 39.6 °F 36.4 °F 30.48 in ENE 3.0 mph 8.0 mph 88 % 0.00 in
11:19 39.8 °F 36.8 °F 30.48 in ENE 6.0 mph 9.0 mph 89 % 0.00 in
11:24 39.8 °F 36.5 °F 30.48 in NE 6.0 mph 10.0 mph 88 % 0.00 in
11:29 39.7 °F 36.5 °F 30.47 in ENE 5.0 mph 10.0 mph 88 % 0.00 in
11:34 39.5 °F 36.2 °F 30.47 in NE 5.6 mph 29.0 mph 88 % 0.00 in
11:39 39.3 °F 35.8 °F 30.47 in ENE 6.0 mph 29.0 mph 87 % 0.00 in
11:44 39.2 °F 35.7 °F 30.46 in ENE 9.0 mph 14.0 mph 87 % 0.00 in
11:49 39.1 °F 35.8 °F 30.45 in ENE 6.0 mph 12.0 mph 88 % 0.00 in
11:54 39.0 °F 35.7 °F 30.45 in ENE 7.0 mph 12.0 mph 88 % 0.00 in
11:59 38.8 °F 35.6 °F 30.45 in ENE 6.5 mph 29.0 mph 88 % 0.00 in
12:04 38.7 °F 35.4 °F 30.44 in ENE 7.0 mph 12.0 mph 88 % 0.00 in
12:09 38.7 °F 35.7 °F 30.43 in ENE 7.0 mph 10.0 mph 89 % 0.00 in
12:14 38.8 °F 36.1 °F 30.43 in ENE 6.0 mph 12.0 mph 90 % 0.00 in
12:19 38.9 °F 36.2 °F 30.43 in ENE 6.0 mph 12.0 mph 90 % 0.00 in
12:24 39.0 °F 36.3 °F 30.42 in ENE 8.0 mph 13.0 mph 90 % 0.00 in
12:29 39.1 °F 36.4 °F 30.42 in ENE 7.1 mph 29.0 mph 90 % 0.00 in
12:34 39.3 °F 36.9 °F 30.42 in East 7.0 mph 10.0 mph 91 % 0.00 in
12:39 39.3 °F 36.9 °F 30.42 in ENE 7.0 mph 12.0 mph 91 % 0.00 in
12:44 39.4 °F 37.0 °F 30.42 in ENE 7.0 mph 10.0 mph 91 % 0.00 in
12:49 39.5 °F 37.1 °F 30.42 in East 7.0 mph 12.0 mph 91 % 0.00 in
12:54 39.7 °F 37.3 °F 30.42 in East 6.4 mph 29.0 mph 91 % 0.00 in
12:59 39.7 °F 37.3 °F 30.41 in East 7.2 mph 29.0 mph 91 % 0.00 in
13:04 39.8 °F 37.4 °F 30.41 in East 6.0 mph 29.0 mph 91 % 0.00 in
13:09 39.9 °F 37.5 °F 30.41 in ENE 6.3 mph 29.0 mph 91 % 0.00 in
13:14 39.9 °F 37.5 °F 30.41 in ENE 5.1 mph 29.0 mph 91 % 0.00 in
13:19 40.0 °F 37.6 °F 30.41 in East 6.8 mph 29.0 mph 91 % 0.00 in
13:24 40.0 °F 37.6 °F 30.41 in East 6.7 mph 29.0 mph 91 % 0.00 in
13:30 40.1 °F 37.7 °F 30.41 in ENE 6.0 mph 29.0 mph 91 % 0.00 in
13:35 40.1 °F 37.7 °F 30.40 in ENE 7.4 mph 29.0 mph 91 % 0.00 in
13:40 40.2 °F 37.8 °F 30.41 in ENE 6.6 mph 29.0 mph 91 % 0.00 in
13:45 40.2 °F 37.8 °F 30.41 in ENE 6.8 mph 29.0 mph 91 % 0.00 in
13:50 40.2 °F 37.8 °F 30.41 in East 7.2 mph 29.0 mph 91 % 0.00 in
13:55 40.2 °F 37.8 °F 30.41 in East 7.7 mph 29.0 mph 91 % 0.00 in
14:00 40.2 °F 37.8 °F 30.40 in East 7.1 mph 29.0 mph 91 % 0.00 in
14:05 40.2 °F 37.8 °F 30.40 in East 7.1 mph 29.0 mph 91 % 0.00 in
14:10 40.2 °F 38.1 °F 30.40 in East 6.9 mph 29.0 mph 92 % 0.00 in
14:15 40.2 °F 38.1 °F 30.40 in East 4.8 mph 29.0 mph 92 % 0.00 in
14:20 40.2 °F 38.1 °F 30.40 in ENE 5.8 mph 29.0 mph 92 % 0.00 in
14:25 40.2 °F 38.1 °F 30.39 in East 6.3 mph 29.0 mph 92 % 0.00 in
14:30 40.1 °F 38.0 °F 30.39 in ENE 7.6 mph 29.0 mph 92 % 0.01 in
14:35 40.1 °F 38.0 °F 30.39 in ENE 5.9 mph 29.0 mph 92 % 0.01 in
14:40 40.0 °F 38.1 °F 30.39 in East 7.8 mph 29.0 mph 93 % 0.01 in
14:46 40.0 °F 38.1 °F 30.39 in ENE 5.8 mph 29.0 mph 93 % 0.01 in
14:51 40.0 °F 38.1 °F 30.39 in ENE 6.1 mph 29.0 mph 93 % 0.01 in
14:56 40.0 °F 38.1 °F 30.39 in East 7.2 mph 29.0 mph 93 % 0.01 in
15:01 40.0 °F 38.1 °F 30.39 in East 6.2 mph 29.0 mph 93 % 0.01 in
15:06 40.0 °F 38.1 °F 30.39 in ENE 7.3 mph 29.0 mph 93 % 0.02 in
15:11 39.9 °F 38.0 °F 30.39 in NE 8.9 mph 29.0 mph 93 % 0.02 in
15:16 39.8 °F 37.9 °F 30.39 in East 9.3 mph 29.0 mph 93 % 0.02 in
15:21 39.7 °F 37.8 °F 30.39 in ENE 7.9 mph 29.0 mph 93 % 0.03 in
15:26 39.5 °F 37.6 °F 30.39 in ENE 8.4 mph 29.0 mph 93 % 0.03 in
15:31 39.3 °F 37.4 °F 30.38 in NNE 9.2 mph 29.0 mph 93 % 0.02 in
15:36 39.3 °F 37.4 °F 30.39 in East 6.4 mph 29.0 mph 93 % 0.03 in
15:41 39.1 °F 37.2 °F 30.39 in ENE 9.6 mph 29.0 mph 93 % 0.03 in
15:46 39.0 °F 37.1 °F 30.39 in ENE 8.3 mph 29.0 mph 93 % 0.03 in
15:51 39.0 °F 37.4 °F 30.38 in ENE 9.6 mph 29.0 mph 94 % 0.03 in
15:56 39.0 °F 37.4 °F 30.38 in East 11.4 mph 29.0 mph 94 % 0.03 in
16:01 38.9 °F 37.3 °F 30.38 in ENE 9.9 mph 29.0 mph 94 % 0.02 in
16:07 38.9 °F 37.0 °F 30.39 in ENE 10.4 mph 29.0 mph 93 % 0.03 in
16:12 38.9 °F 37.3 °F 30.38 in East 8.8 mph 29.0 mph 94 % 0.03 in
16:17 38.9 °F 37.3 °F 30.39 in ENE 11.0 mph 29.0 mph 94 % 0.03 in
16:22 38.9 °F 37.3 °F 30.38 in NE 8.4 mph 29.0 mph 94 % 0.02 in
16:27 38.9 °F 37.3 °F 30.38 in ENE 9.8 mph 29.0 mph 94 % 0.02 in
16:32 38.9 °F 37.3 °F 30.37 in ENE 10.0 mph 29.0 mph 94 % 0.02 in
16:37 38.9 °F 37.3 °F 30.37 in NNE 6.9 mph 29.0 mph 94 % 0.01 in
16:42 38.9 °F 37.3 °F 30.37 in ENE 8.9 mph 29.0 mph 94 % 0.01 in
16:47 38.9 °F 37.3 °F 30.37 in ENE 7.6 mph 29.0 mph 94 % 0.01 in
16:52 38.8 °F 37.2 °F 30.37 in ENE 8.5 mph 29.0 mph 94 % 0.01 in
16:57 38.8 °F 37.5 °F 30.37 in ENE 8.1 mph 29.0 mph 95 % 0.01 in
17:02 38.8 °F 37.2 °F 30.37 in ENE 8.2 mph 29.0 mph 94 % 0.01 in
17:08 38.8 °F 37.5 °F 30.37 in ENE 7.8 mph 29.0 mph 95 % 0.00 in
17:13 38.8 °F 37.5 °F 30.37 in NE 10.2 mph 29.0 mph 95 % 0.00 in
17:18 38.8 °F 37.5 °F 30.36 in ENE 9.4 mph 29.0 mph 95 % 0.00 in
17:23 38.8 °F 37.5 °F 30.35 in ENE 8.7 mph 29.0 mph 95 % 0.00 in
17:28 38.8 °F 37.5 °F 30.36 in NE 7.1 mph 29.0 mph 95 % 0.00 in
17:33 38.8 °F 37.5 °F 30.36 in ENE 10.8 mph 29.0 mph 95 % 0.00 in
17:38 38.9 °F 37.6 °F 30.36 in ENE 9.8 mph 29.0 mph 95 % 0.00 in
17:43 38.9 °F 37.6 °F 30.36 in ENE 8.3 mph 29.0 mph 95 % 0.00 in
17:48 38.9 °F 37.6 °F 30.36 in ENE 8.5 mph 29.0 mph 95 % 0.00 in
17:53 38.9 °F 37.6 °F 30.36 in ENE 10.3 mph 29.0 mph 95 % 0.00 in
17:58 38.8 °F 37.5 °F 30.35 in ENE 10.5 mph 29.0 mph 95 % 0.01 in
18:01 38.8 °F 37.5 °F 30.35 in ENE 8.2 mph 29.0 mph 95 % 0.01 in
18:06 38.8 °F 37.5 °F 30.35 in ENE 8.1 mph 29.0 mph 95 % 0.01 in
18:11 38.8 °F 37.8 °F 30.35 in NE 9.9 mph 29.0 mph 96 % 0.01 in
18:16 38.9 °F 37.9 °F 30.35 in ENE 8.0 mph 29.0 mph 96 % 0.02 in
18:21 38.9 °F 37.9 °F 30.35 in ENE 7.1 mph 29.0 mph 96 % 0.02 in
18:26 38.9 °F 37.9 °F 30.35 in ENE 8.4 mph 29.0 mph 96 % 0.02 in
18:31 38.9 °F 37.9 °F 30.36 in ENE 7.4 mph 29.0 mph 96 % 0.02 in
18:36 38.9 °F 37.9 °F 30.36 in ENE 8.3 mph 29.0 mph 96 % 0.03 in
18:41 38.9 °F 37.9 °F 30.35 in ENE 7.6 mph 29.0 mph 96 % 0.03 in
18:46 38.9 °F 37.9 °F 30.35 in East 7.4 mph 29.0 mph 96 % 0.03 in
18:51 39.0 °F 38.0 °F 30.35 in East 8.4 mph 29.0 mph 96 % 0.03 in
18:57 39.0 °F 38.0 °F 30.35 in ENE 10.2 mph 29.0 mph 96 % 0.04 in
19:02 39.1 °F 38.1 °F 30.35 in ENE 7.7 mph 29.0 mph 96 % 0.03 in
19:07 39.1 °F 38.1 °F 30.35 in ENE 7.7 mph 29.0 mph 96 % 0.03 in
19:12 39.2 °F 38.2 °F 30.35 in East 6.9 mph 29.0 mph 96 % 0.03 in
19:17 39.4 °F 38.6 °F 30.35 in East 8.2 mph 29.0 mph 97 % 0.03 in
19:22 39.4 °F 38.4 °F 30.35 in ENE 8.6 mph 29.0 mph 96 % 0.03 in
19:27 39.4 °F 38.6 °F 30.34 in NE 9.8 mph 29.0 mph 97 % 0.03 in
19:32 39.5 °F 38.7 °F 30.34 in ENE 8.9 mph 29.0 mph 97 % 0.03 in
19:37 39.6 °F 38.8 °F 30.34 in ENE 9.0 mph 29.0 mph 97 % 0.02 in
19:42 39.7 °F 38.9 °F 30.34 in ENE 10.2 mph 29.0 mph 97 % 0.02 in
19:47 39.6 °F 38.8 °F 30.34 in ENE 12.2 mph 29.0 mph 97 % 0.02 in
19:52 39.4 °F 38.6 °F 30.34 in ENE 10.2 mph 29.0 mph 97 % 0.02 in
19:57 39.3 °F 38.5 °F 30.34 in ENE 10.1 mph 29.0 mph 97 % 0.01 in
20:03 39.2 °F 38.2 °F 30.34 in NE 9.6 mph 29.0 mph 96 % 0.01 in
20:08 39.1 °F 38.1 °F 30.34 in NE 9.8 mph 29.0 mph 96 % 0.01 in
20:13 38.8 °F 37.8 °F 30.34 in ENE 9.1 mph 29.0 mph 96 % 0.01 in
20:18 38.5 °F 37.5 °F 30.33 in ENE 9.9 mph 29.0 mph 96 % 0.00 in
20:23 38.4 °F 37.4 °F 30.32 in ENE 7.5 mph 29.0 mph 96 % 0.00 in
20:28 38.2 °F 37.2 °F 30.32 in ENE 9.2 mph 29.0 mph 96 % 0.00 in
20:33 38.2 °F 37.2 °F 30.33 in ENE 9.4 mph 29.0 mph 96 % 0.00 in
20:38 38.2 °F 37.2 °F 30.32 in ENE 8.0 mph 29.0 mph 96 % 0.00 in
20:43 38.2 °F 37.4 °F 30.31 in ENE 9.6 mph 29.0 mph 97 % 0.00 in
20:48 38.2 °F 37.4 °F 30.31 in ENE 10.3 mph 29.0 mph 97 % 0.00 in
20:53 38.2 °F 37.4 °F 30.31 in ENE 10.6 mph 29.0 mph 97 % 0.00 in
20:58 38.3 °F 37.5 °F 30.30 in ENE 10.7 mph 29.0 mph 97 % 0.00 in
21:03 38.3 °F 37.5 °F 30.30 in ENE 11.0 mph 29.0 mph 97 % 0.00 in
21:08 38.4 °F 37.6 °F 30.29 in ENE 11.1 mph 29.0 mph 97 % 0.00 in
21:13 38.4 °F 37.6 °F 30.29 in ENE 10.3 mph 29.0 mph 97 % 0.00 in
21:18 38.5 °F 37.7 °F 30.29 in ENE 9.6 mph 29.0 mph 97 % 0.00 in
21:23 38.5 °F 37.7 °F 30.29 in ENE 11.4 mph 29.0 mph 97 % 0.00 in
21:29 38.5 °F 37.7 °F 30.29 in ENE 10.5 mph 29.0 mph 97 % 0.00 in
21:34 38.6 °F 37.8 °F 30.28 in ENE 9.7 mph 29.0 mph 97 % 0.00 in
21:39 38.7 °F 37.9 °F 30.28 in ENE 9.2 mph 29.0 mph 97 % 0.00 in
21:44 38.7 °F 37.9 °F 30.27 in NE 11.6 mph 29.0 mph 97 % 0.00 in
21:49 38.7 °F 37.9 °F 30.27 in East 11.3 mph 29.0 mph 97 % 0.00 in
21:54 38.6 °F 37.6 °F 30.27 in ENE 13.4 mph 29.0 mph 96 % 0.00 in
21:59 38.5 °F 37.5 °F 30.27 in ENE 10.8 mph 29.0 mph 96 % 0.00 in
22:04 38.4 °F 37.4 °F 30.27 in ENE 9.4 mph 29.0 mph 96 % 0.00 in
22:09 38.4 °F 37.6 °F 30.28 in ENE 9.5 mph 29.0 mph 97 % 0.00 in
22:14 38.4 °F 37.6 °F 30.28 in ENE 11.3 mph 29.0 mph 97 % 0.01 in
22:19 38.4 °F 37.6 °F 30.28 in ENE 9.5 mph 29.0 mph 97 % 0.01 in
22:24 38.4 °F 37.6 °F 30.28 in ENE 10.4 mph 29.0 mph 97 % 0.01 in
22:30 38.5 °F 37.7 °F 30.27 in ENE 12.0 mph 29.0 mph 97 % 0.01 in
22:35 38.5 °F 37.7 °F 30.26 in ENE 10.9 mph 29.0 mph 97 % 0.01 in
22:40 38.6 °F 37.8 °F 30.27 in ENE 10.0 mph 29.0 mph 97 % 0.01 in
22:50 38.6 °F 37.8 °F 30.27 in ENE 10.5 mph 29.0 mph 97 % 0.01 in
22:55 38.6 °F 37.8 °F 30.27 in NE 9.7 mph 29.0 mph 97 % 0.01 in
23:00 38.6 °F 37.8 °F 30.27 in ENE 11.2 mph 29.0 mph 97 % 0.01 in
23:05 38.7 °F 37.9 °F 30.27 in ENE 10.2 mph 29.0 mph 97 % 0.01 in
23:10 38.7 °F 37.9 °F 30.27 in NE 8.7 mph 29.0 mph 97 % 0.01 in
23:20 38.7 °F 37.9 °F 30.26 in ENE 8.6 mph 29.0 mph 97 % 0.01 in
23:25 38.7 °F 37.9 °F 30.26 in ENE 10.2 mph 29.0 mph 97 % 0.01 in
23:30 38.7 °F 37.9 °F 30.25 in East 9.4 mph 29.0 mph 97 % 0.01 in
23:31 38.7 °F 37.9 °F 30.25 in ENE 9.3 mph 29.0 mph 97 % 0.01 in
23:36 38.7 °F 37.9 °F 30.25 in ENE 10.1 mph 29.0 mph 97 % 0.01 in
23:41 38.7 °F 37.9 °F 30.25 in NE 10.2 mph 29.0 mph 97 % 0.01 in
23:46 38.7 °F 37.9 °F 30.25 in ENE 9.3 mph 29.0 mph 97 % 0.01 in
23:51 38.7 °F 37.9 °F 30.25 in ENE 10.2 mph 29.0 mph 97 % 0.01 in
23:56 38.7 °F 37.9 °F 30.24 in NE 10.2 mph 29.0 mph 97 % 0.01 in
Crab Meadow Weather
Compliments of Weather Underground - 3 mb

Script developed by  Jim McMurry - jmcmurry@mwt.net Adapted for the template by  Wim van der Kuil - Leuven-Template.eu

Extremes: Currently the driest state is Nevada with an annual rainfall of only nine inches.